[[{"header":{"parameterUnit":"m.s-1","parameterCategory":1,"la1":30.2991,"la2":30.254,"lo1":-89.0895,"lo2":-89.0444,"dy":0.0017,"dx":0.0017,"nx":28,"ny":28,"refTime":"2023-08-21T03:00:00:Z","depth":0,"parameterNumber":2,"parameterNumberName":"U-component_of_WINDS"},"data":[0,0,0,0,0,0,0,0,0,0,0,0,0,0,0,0,0,0,0,0,0,0,0,0,0,0,0,0,0,0,0,0,0,0,0,0,0,0,0,0,0,0,0,0,0,0,0,0,0,0,0,0,0,0,0,0,0,0,0.6769,0.6771,0,0.6963,0.6965,0.6967,0.701,0.7009,0.7008,0.7006,0.7207,0.7214,0.722,0,0,0,0,0,0,0,0,0,0,0,0,0,0.6434,0.644,0.6768,0.6771,0.6773,0.6962,0.6965,0.6968,0.7011,0.7009,0.7007,0.7006,0.7205,0.7213,0.7221,0,0,0,0,0,0,0,0,0,0,0,0,0,0.6599,0.6442,0.6768,0.6817,0.6824,0.6962,0.6965,0.6968,0.7011,0.7009,0.7007,0.7005,0.7203,0.7212,0.7222,0.7325,0,0,0.7253,0.7257,0,0,0,0,0,0,0,0,0.659,0.6611,0.6808,0.6814,0.6822,0.696,0.6921,0.7088,0.7011,0.694,0.7006,0.7004,0.7127,0.7143,0.7184,0.7335,0.7344,0.7253,0.726,0.7264,0.7267,0,0,0,0,0,0,0,0.6578,0.6603,0.6845,0.681,0.6819,0.683,0.6851,0.6953,0.7043,0.6946,0.695,0.6972,0.713,0.7174,0.7189,0.7346,0.7253,0.7262,0.7268,0.7272,0.7588,0.7591,0,0,0,0,0,0,0.6558,0.6593,0.6839,0.6851,0.6698,0.6837,0.6861,0.6918,0.7042,0.7059,0.6973,0.6973,0.7158,0.7177,0.7196,0.7323,0.7264,0.7273,0.7279,0.7586,0.7589,0.7592,0,0,0,0,0,0,0.6551,0.658,0.6831,0.6723,0.6756,0.6845,0.6909,0.6923,0.6967,0.7063,0.7079,0.7002,0.7157,0.7182,0.7292,0.7331,0.7278,0.7287,0.7583,0.7587,0.759,0.7579,0,0,0,0,0,0,0.6541,0.6577,0.6617,0.6724,0.6762,0.6924,0.6911,0.6928,0.6984,0.6985,0.7094,0.711,0.7158,0.7277,0.7302,0.7344,0.7294,0.758,0.7585,0.7589,0.7577,0.7582,0.7587,0,0,0,0,0,0.6529,0.6608,0.6619,0.6648,0.6814,0.6926,0.6948,0.7001,0.6987,0.7028,0.7089,0.7106,0.7323,0.7288,0.7317,0.7362,0.7578,0.7584,0.7589,0.7574,0.7581,0.7587,0,0,0,0,0,0,0.6505,0.6623,0.6637,0.6752,0.6828,0.6933,0.6987,0.7007,0.709,0.7088,0.7151,0.7175,0.728,0.7332,0.7291,0.7467,0.745,0.7461,0.7429,0.7436,0.7441,0.7426,0.7303,0,0,0,0,0,0.6512,0.6593,0.6692,0.6784,0.6822,0.6897,0.6948,0.6982,0.7064,0.7097,0.7167,0.7246,0.7331,0.7387,0.7471,0.7584,0.7607,0.7629,0.7634,0.7638,0.7647,0.7708,0.7718,0.7609,0.7609,0.7609,0,0,0.653,0.6604,0.6652,0.6781,0.6845,0.6926,0.6925,0.7012,0.7073,0.7111,0.7218,0.7271,0.7364,0.7475,0.7527,0.7521,0.7682,0.7645,0.7647,0.7655,0.7715,0.7725,0.7734,0.7613,0.7612,0.7612,0,0,0.6603,0.6668,0.6751,0.6814,0.6909,0.6958,0.6977,0.7079,0.7115,0.7223,0.7252,0.7326,0.7473,0.7537,0.7589,0.7682,0.7701,0.7708,0.7735,0.7793,0.7802,0.781,0.7841,0.7852,0.7717,0.7717,0.7717,0,0.6613,0.6737,0.6791,0.6876,0.6931,0.6968,0.7051,0.711,0.7228,0.7265,0.7256,0.7439,0.7504,0.7629,0.7652,0.7693,0.7716,0.7696,0.7796,0.7805,0.7813,0.7844,0.7856,0.7717,0.7717,0.7717,0.7717,0,0.6744,0.6829,0.6885,0.6996,0.7057,0.7141,0.7207,0.7263,0.7291,0.734,0.7449,0.7528,0.7627,0.7659,0.7689,0.7788,0.7781,0.7784,0.7768,0.7822,0.7852,0.7865,0.7717,0.7717,0.7717,0.7717,0,0,0.6809,0.6946,0.6966,0.7015,0.7121,0.7188,0.7273,0.7369,0.7415,0.7494,0.7566,0.7688,0.769,0.7748,0.7785,0.7836,0.7902,0.7832,0.7835,0.7841,0.8014,0.8011,0.8024,0.7915,0.7918,0.792,0.8006,0,0.6894,0.7046,0.7095,0.7221,0.73,0.7334,0.7407,0.748,0.7528,0.7601,0.7655,0.7739,0.7737,0.7772,0.7824,0.7883,0.7938,0.7878,0.7982,0.7985,0.7956,0.804,0.8037,0.8115,0.8018,0.802,0.8022,0,0.7014,0.7093,0.7227,0.732,0.7355,0.742,0.751,0.7581,0.7663,0.7694,0.7757,0.7789,0.7877,0.7856,0.7978,0.7936,0.7981,0.8016,0.802,0.8032,0.8006,0.8052,0.8141,0.8152,0.8041,0.8039,0.8038,0,0.7045,0.7186,0.7283,0.7325,0.7437,0.7481,0.753,0.761,0.7664,0.7743,0.7778,0.7867,0.7915,0.7983,0.8037,0.8016,0.8153,0.8137,0.8181,0.8179,0.8208,0.8205,0.8304,0.8239,0.8238,0.8238,0.8238,0,0.7135,0.7215,0.7298,0.7358,0.7448,0.7504,0.7591,0.7642,0.7712,0.7782,0.7817,0.7881,0.7949,0.8022,0.8065,0.8158,0.8181,0.8207,0.8218,0.8204,0.82,0.8234,0.823,0.8241,0.8241,0.824,0.8239,0,0.7186,0.7245,0.7353,0.7449,0.7475,0.7537,0.7619,0.7678,0.7726,0.7814,0.7837,0.7914,0.8001,0.8061,0.8175,0.8203,0.8303,0.8314,0.8275,0.828,0.832,0.8314,0.8443,0.8462,0.8384,0.8385,0.8386,0,0.7238,0.73,0.7402,0.7451,0.7499,0.7577,0.7631,0.7688,0.7743,0.7839,0.7886,0.7975,0.805,0.8188,0.8253,0.8339,0.8351,0.839,0.8364,0.8347,0.8349,0.8344,0.835,0.8394,0.8394,0.8395,0.8395,0,0.7325,0.735,0.7427,0.7513,0.7576,0.7647,0.7718,0.7755,0.7824,0.7883,0.7973,0.803,0.8144,0.8232,0.8323,0.8373,0.8395,0.8402,0.8417,0.8403,0.8377,0.839,0.8284,0.8399,0.8399,0.8399,0.8398,0.8398,0.7377,0.7433,0.7512,0.7595,0.7654,0.7719,0.7778,0.7833,0.7908,0.8004,0.8033,0.8125,0.8203,0.8328,0.8379,0.8451,0.8448,0.8469,0.8474,0.8479,0.8477,0.8366,0.8468,0.8468,0.8468,0.8468,0.8468,0,0.7464,0.7516,0.7592,0.7689,0.7754,0.7768,0.7846,0.79,0.798,0.8051,0.8122,0.8223,0.8308,0.8379,0.8466,0.851,0.8522,0.8531,0.8528,0.8538,0.8476,0.8454,0.8519,0.8519,0.8519,0.8519,0.8519,0.8519,0.7517,0.761,0.7645,0.7767,0.7819,0.7909,0.7952,0.8012,0.8068,0.8179,0.8249,0.8294,0.8364,0.8456,0.8534,0.8552,0.8582,0.8588,0.8609,0.8549,0.8543,0.8537,0.8517,0.8594,0.8595,0.8665,0.8666,0.8666]},{"header":{"parameterUnit":"m.s-1","parameterCategory":1,"la1":30.2991,"la2":30.254,"lo1":-89.0895,"lo2":-89.0444,"dy":0.0017,"dx":0.0017,"nx":28,"ny":28,"refTime":"2023-08-21T03:00:00:Z","depth":0,"parameterNumber":3,"parameterNumberName":"V-component_of_WINDS"},"data":[0,0,0,0,0,0,0,0,0,0,0,0,0,0,0,0,0,0,0,0,0,0,0,0,0,0,0,0,0,0,0,0,0,0,0,0,0,0,0,0,0,0,0,0,0,0,0,0,0,0,0,0,0,0,0,0,0,0,3.1111,3.1111,0,3.1085,3.1085,3.1085,3.1114,3.1115,3.1116,3.1117,3.1083,3.1081,3.108,0,0,0,0,0,0,0,0,0,0,0,0,0,3.1179,3.1178,3.1111,3.1111,3.1111,3.1085,3.1085,3.1085,3.1114,3.1115,3.1116,3.1118,3.1084,3.1082,3.1079,0,0,0,0,0,0,0,0,0,0,0,0,0,3.1151,3.1177,3.1111,3.1122,3.1123,3.1085,3.1085,3.1085,3.1113,3.1115,3.1117,3.1118,3.1085,3.1082,3.1079,3.1027,0,0,3.107,3.1069,0,0,0,0,0,0,0,0,3.1152,3.1148,3.1121,3.1122,3.1122,3.1105,3.1096,3.1065,3.1113,3.1117,3.1117,3.1119,3.1089,3.1085,3.1077,3.1026,3.1024,3.107,3.1068,3.1067,3.1066,0,0,0,0,0,0,0,3.1154,3.1149,3.1101,3.1121,3.1121,3.1126,3.1124,3.1091,3.1093,3.1117,3.1119,3.1116,3.1089,3.1079,3.1076,3.1024,3.107,3.1067,3.1065,3.1064,3.0925,3.0923,0,0,0,0,0,0,3.1156,3.1151,3.1102,3.11,3.1142,3.1124,3.1121,3.1109,3.1094,3.1093,3.1114,3.1117,3.1084,3.1079,3.1075,3.101,3.1067,3.1064,3.1062,3.0927,3.0924,3.0922,0,0,0,0,0,0,3.1157,3.1151,3.1103,3.1126,3.112,3.1121,3.1106,3.1107,3.1097,3.1092,3.1092,3.1104,3.1085,3.1079,3.1038,3.101,3.1063,3.106,3.0929,3.0926,3.0923,3.0882,0,0,0,0,0,0,3.1159,3.1152,3.1134,3.1126,3.1119,3.1069,3.1105,3.1105,3.1093,3.1097,3.1083,3.1082,3.1086,3.1043,3.1036,3.1007,3.1058,3.0931,3.0928,3.0924,3.0886,3.0878,3.0872,0,0,0,0,0,3.1161,3.1122,3.1133,3.1127,3.1097,3.1067,3.1063,3.107,3.1091,3.1071,3.1067,3.1082,3.1015,3.1038,3.1031,3.1,3.0933,3.0929,3.0924,3.0889,3.088,3.0872,0,0,0,0,0,0,3.1125,3.1122,3.1133,3.1091,3.1079,3.1072,3.1048,3.1061,3.1041,3.1045,3.1053,3.1049,3.1006,3.0999,3.1026,3.0947,3.0977,3.0971,3.0953,3.0944,3.0937,3.0937,3.1055,0,0,0,0,0,3.1113,3.1091,3.1089,3.1051,3.1045,3.1048,3.1035,3.1042,3.1029,3.1024,3.1017,3.1002,3.0977,3.0961,3.0938,3.0886,3.0881,3.0861,3.0854,3.0848,3.0842,3.081,3.08,3.0908,3.0908,3.0908,0,0,3.1085,3.1081,3.1067,3.1044,3.1036,3.101,3.1043,3.1016,3.0996,3.1019,3.098,3.0974,3.0958,3.0911,3.089,3.0904,3.0811,3.0843,3.0838,3.0835,3.0805,3.0794,3.0785,3.0905,3.0905,3.0906,0,0,3.1023,3.1019,3.0986,3.0978,3.0966,3.0967,3.096,3.0951,3.0948,3.091,3.0926,3.0901,3.086,3.0846,3.0834,3.0766,3.0777,3.0758,3.0719,3.0688,3.0679,3.0672,3.0643,3.0634,3.0752,3.0752,3.0752,0,3.0989,3.0955,3.0967,3.0938,3.0926,3.0948,3.0913,3.0903,3.0883,3.0873,3.0891,3.0837,3.0828,3.0776,3.0759,3.075,3.0738,3.0758,3.068,3.0673,3.0666,3.0638,3.0628,3.075,3.075,3.075,3.075,0,3.0913,3.0888,3.0863,3.0845,3.083,3.0798,3.0803,3.0786,3.0794,3.0793,3.0751,3.0742,3.0716,3.0705,3.0712,3.0653,3.0662,3.068,3.0708,3.0653,3.0627,3.0617,3.0746,3.0747,3.0748,3.0748,0,0,3.0824,3.0814,3.0804,3.0795,3.0784,3.0763,3.0731,3.0708,3.0691,3.0677,3.0648,3.0611,3.0627,3.0613,3.0619,3.0593,3.0534,3.0613,3.0613,3.0595,3.0464,3.0448,3.0436,3.0543,3.0541,3.054,3.0464,0,3.0759,3.0705,3.0715,3.0661,3.0637,3.0657,3.0628,3.0616,3.0615,3.0591,3.0588,3.0561,3.0586,3.0577,3.0552,3.0547,3.0507,3.0553,3.0511,3.051,3.0511,3.0424,3.0407,3.0336,3.0455,3.0453,3.0452,0,3.0675,3.0658,3.0603,3.0593,3.0583,3.0558,3.0536,3.0515,3.05,3.05,3.0485,3.0495,3.0459,3.0491,3.044,3.047,3.0454,3.0449,3.0446,3.0439,3.0475,3.0411,3.0314,3.0302,3.0437,3.0438,3.0439,0,3.0611,3.0576,3.0537,3.0529,3.0518,3.0499,3.0493,3.0481,3.0465,3.0446,3.0435,3.0411,3.0396,3.0376,3.0378,3.0402,3.0324,3.0357,3.0319,3.0319,3.0299,3.03,3.0195,3.0295,3.0295,3.0295,3.0296,0,3.0535,3.0499,3.0508,3.0484,3.0443,3.0454,3.0413,3.0409,3.0398,3.0371,3.0387,3.0361,3.0367,3.034,3.0341,3.0296,3.029,3.0286,3.0286,3.0282,3.0282,3.0269,3.0273,3.0293,3.0293,3.0294,3.0294,0,3.0455,3.0461,3.042,3.0413,3.041,3.038,3.0373,3.0348,3.0349,3.0314,3.0306,3.0305,3.0273,3.0274,3.0238,3.0239,3.0182,3.019,3.0187,3.0187,3.0148,3.015,3.0028,3.001,3.0126,3.0125,3.0124,0,3.0404,3.0377,3.0368,3.0352,3.0346,3.032,3.0305,3.0314,3.0297,3.0278,3.0254,3.0225,3.0202,3.015,3.0144,3.0116,3.012,3.0079,3.0115,3.0112,3.0114,3.0114,3.011,3.0071,3.0069,3.0068,3.0067,0,3.0312,3.0316,3.0295,3.0274,3.0255,3.0239,3.0224,3.0209,3.0216,3.0195,3.0165,3.0147,3.0111,3.008,3.0052,3.0043,3.0054,3.0057,3.0046,3.0039,3.0038,3.0034,3.0164,3.0058,3.0059,3.006,3.006,3.0061,3.0242,3.0218,3.0208,3.0183,3.0173,3.0158,3.0134,3.0132,3.0107,3.0079,3.0086,3.005,3.0034,2.9999,2.9987,2.9957,2.997,2.9956,2.9951,2.9946,2.994,3.0046,2.9952,2.9952,2.9953,2.9953,2.9953,0,3.0147,3.0142,3.0119,3.0098,3.0077,3.0095,3.0078,3.0058,3.0028,3.0013,2.999,2.9953,2.9923,2.9915,2.9885,2.9862,2.9866,2.9853,2.9853,2.9849,2.9931,2.9942,2.985,2.985,2.985,2.985,2.985,2.985,3.0095,3.0055,3.0057,3.001,3.0004,2.9971,2.996,2.9945,2.9933,2.9892,2.9868,2.9864,2.985,2.9819,2.9791,2.9789,2.9775,2.9759,2.9758,2.9834,2.9844,2.9854,2.9864,2.9757,2.9757,2.9678,2.9678,2.9677]}]]